Weather in Poddub'ye

Russia / Saint-Petersburg and Leningrad Oblast     59°01′54″N   30°51′47″E
temp.,
°C
wind,
m/s
gust,
m/s
humid.,
%
clouds,
%
prec.,
mm/h
press.,
hPa
HPBL,
m
29 june, wed
wed2900:00+17ese287830 0.1 1023167
03:00+14e378382 0.3 1022139
06:00+15ese39744 0.0 1022257
09:00+20ese45530 0.0 1022582
12:00+24se34420 0.0 10211190
15:00+26ese22380 0.0 10201706
18:00+26e32380 0.0 10191820
21:00+20e25600 0.0 101993
30 june, thu
thu3000:00+15ese22604 0.0 102020
03:00+13ese11614 0.0 102110
06:00+14ene22645 0.0 102163
09:00+21e2243100 0.0 1021401
12:00+25ene23315 0.0 10211526
15:00+27ene23275 0.0 10201875
18:00+26e223378 0.0 10201696
21:00+20ene11585 0.0 102112
1 july, fri
fri100:00+16ene22665 0.0 102226
03:00+14e22625 0.0 102224
06:00+16e116856 0.0 102321
09:00+23ese114574 0.0 1023314
12:00+27e123240 0.0 10221196
15:00+29se22300 0.0 10211790
18:00+29sse11330 0.0 10201825
21:00+22sw11590 0.0 102111
2 july, sat
sat200:00+18wsw11620 0.0 102111
03:00+17wsw1164100 0.0 102111
06:00+18sw1267100 0.0 102126
09:00+24ssw114872 0.0 1021285
12:00+28sw1137100 0.0 10201054
15:00+28ssw1136100 0.0 10191421
18:00+27s0148100 0.0 1018427
21:00+22se116558 0.0 101811
3 july, sun
sun300:00+19se227457 0.0 101813
03:00+19ssw1274100 0.0 101817
06:00+20sw1181100 0.0 101838
09:00+26wsw125961 0.0 1017476
12:00+28w335174 0.0 10171302
15:00+30wsw134196 0.0 10161517
18:00+24nw2466100 0.1 101692
21:00+20nnw2692100 1.1 1018128